Weather reports worldwide

Advertisment
Gottfrieding, Germany (10872): temperature & dewpoint: 15.06.2018 23:00:00 - 21.06.2018 23:00:00 (CEST)Gottfrieding, Germany (10872): temperature 5cm & temperature -5cm: 15.06.2018 23:00:00 - 21.06.2018 23:00:00 (CEST)Gottfrieding, Germany (10872): temperature -20cm & temperature -100cm: 15.06.2018 23:00:00 - 21.06.2018 23:00:00 (CEST)Gottfrieding, Germany (10872): wind speed & gusts: 15.06.2018 23:00:00 - 21.06.2018 23:00:00 (CEST)Gottfrieding, Germany (10872): wind direction: 15.06.2018 23:00:00 - 21.06.2018 23:00:00 (CEST)Gottfrieding, Germany (10872): reduced air pressure: 15.06.2018 23:00:00 - 21.06.2018 23:00:00 (CEST)Gottfrieding, Germany (10872): visibility: 15.06.2018 23:00:00 - 21.06.2018 23:00:00 (CEST)Gottfrieding, Germany (10872): sunshine duration: 15.06.2018 23:00:00 - 21.06.2018 23:00:00 (CEST)Gottfrieding, Germany (10872): precipitation: 15.06.2018 23:00:00 - 21.06.2018 23:00:00 (CEST)
Date & Time tt [°C] td [°C] tt 5cm [°C] tt -5cm [°C] tt -20cm [°C] tt -100cm [°C] ff [km/h] ff [kn] fx [km/h] fx [kn] dd ppp [hPa] vv [km] sd [min] rr [mm]
21.06.2018 23:00:00 18,6 9,5 17,9 25,0 24,6 18,4 17 9 26 14 NW 1016,7 26 0 0,0
21.06.2018 22:00:00 18,8 11,3 17,7 26,0 24,7 18,4 14 8 30 16 NW 1016,2 24 0 0,0
21.06.2018 21:00:00 20,8 12,2 20,0 27,2 24,7 18,4 26 14 42 23 NW 1014,8 22 23 0,0
21.06.2018 20:00:00 23,3 12,9 23,4 28,0 24,7 18,4 24 13 36 20 NW 1013,2 10 20 0,0
21.06.2018 19:00:00 23,3 11,5 23,4 28,7 24,6 18,4 16 8 39 21 WNW 1012,6 13 6 0,0
21.06.2018 18:00:00 25,4 9,1 26,8 29,7 24,4 18,4 26 14 45 25 WNW 1012,1 3,8 36 0,0
21.06.2018 17:00:00 26,3 11,8 28,8 30,1 24,1 18,4 31 17 48 26 WNW 1011,9 4,4 42 0,0
21.06.2018 16:00:00 27,0 13,5 28,6 30,5 23,8 18,4 30 16 44 24 WNW 1011,5 4,3 16 0,0
21.06.2018 15:00:00 28,1 15,8 30,5 31,2 23,5 18,4 27 15 50 27 WNW 1011,2 4,5 53 0,0
21.06.2018 14:00:00 28,7 15,5 32,9 30,3 23,2 18,4 26 14 38 21 W 1011,2 4,0 52 0,0
21.06.2018 13:00:00 28,1 16,2 31,9 29,3 22,9 18,4 21 12 36 19 W 1012,0 6 49 0,0
21.06.2018 12:00:00 28,0 15,0 32,8 28,0 22,7 18,4 16 8 25 13 SW 1012,6 4,9 41 0,0
21.06.2018 11:00:00 27,2 15,7 31,7 26,6 22,6 18,3 6 4 16 8 WSW 1013,0 11 58 0,0
21.06.2018 10:00:00 24,9 15,6 28,3 24,6 22,6 18,3 3 2 12 7 ENE 1014,0 11 60 0,0
21.06.2018 09:00:00 22,4 15,2 25,3 22,8 22,7 18,3 4 2 8 4 NW 1015,1 14 60 0,0
21.06.2018 08:00:00 19,3 15,5 21,6 21,6 22,9 18,3 4 2 8 4 W 1015,7 8 60 0,0
21.06.2018 07:00:00 16,7 14,3 18,1 21,0 23,2 18,3 4 2 6 4 W 1016,3 11 60 0,0
21.06.2018 06:00:00 13,7 12,6 12,6 21,1 23,4 18,3 4 2 6 3 SW 1016,9 6 20 0,0
21.06.2018 05:00:00 12,6 12,2 11,3 21,6 23,7 18,3 6 4 7 4 WSW 1017,1 6 0 0,0
21.06.2018 04:00:00 13,2 12,6 11,7 22,2 23,9 18,3 5 3 7 4 WSW 1017,5 7 0 0,0
21.06.2018 03:00:00 13,3 12,6 12,0 22,8 24,1 18,3 5 3 6 3 W 1017,8 8 0 0,0
21.06.2018 02:00:00 14,2 13,5 12,8 23,6 24,4 18,3 3 1 6 3 S 1018,1 9 0 0,0
21.06.2018 01:00:00 15,1 13,8 13,4 24,4 24,5 18,3 5 3 8 4 SW 1018,3 10 0 0,0
21.06.2018 00:00:00 15,4 14,0 14,2 25,4 24,7 18,3 4 2 5 3 SW 1018,7 12 0 0,0
20.06.2018 23:00:00 17,3 14,8 15,0 26,6 24,8 18,3 3 2 6 3 WNW 1018,6 18 0 0,0
20.06.2018 22:00:00 19,4 16,5 17,1 28,0 24,7 18,3 0 0 6 3 N 1018,2 18 9 0,0
20.06.2018 21:00:00 23,2 15,9 21,0 29,6 24,6 18,3 4 2 7 4 N 1017,5 31 60 0,0
20.06.2018 20:00:00 25,5 13,6 26,0 30,8 24,4 18,3 7 4 12 7 NNE 1017,4 28 60 0,0
20.06.2018 19:00:00 26,6 13,5 29,8 31,7 24,1 18,3 6 3 16 9 E 1017,6 30 60 0,0
20.06.2018 18:00:00 26,9 13,4 31,5 32,1 23,7 18,3 10 5 21 12 ENE 1017,8 18 60 0,0
20.06.2018 17:00:00 27,2 12,8 33,5 31,8 23,3 18,3 7 4 19 11 ENE 1018,3 16 60 0,0
20.06.2018 16:00:00 27,0 13,4 35,2 31,0 23,0 18,3 9 5 22 12 E 1018,9 11 46 0,0
20.06.2018 15:00:00 26,6 12,7 33,2 31,0 22,6 18,3 7 4 23 12 E 1019,3 19 45 0,0
20.06.2018 14:00:00 26,3 13,5 32,7 29,2 22,3 18,3 13 7 24 13 ENE 1019,9 15 51 0,0
20.06.2018 13:00:00 25,1 13,4 30,2 27,8 22,1 18,3 13 7 21 11 ESE 1020,8 10 30 0,0
20.06.2018 12:00:00 24,6 14,6 29,0 26,7 21,9 18,2 9 5 24 13 E 1021,1 21 8 0,0
20.06.2018 11:00:00 24,7 16,0 29,9 26,0 21,8 18,2 10 6 19 10 ENE 1021,2 10 60 0,0
20.06.2018 10:00:00 23,6 14,9 26,6 24,2 21,7 18,2 12 7 21 11 ENE 1021,8 17 60 0,0
20.06.2018 09:00:00 22,4 15,4 25,6 22,8 21,8 18,2 8 4 11 6 E 1022,2 17 60 0,0
20.06.2018 08:00:00 21,0 15,8 22,8 21,7 21,9 18,2 5 3 7 4 ENE 1022,5 12 60 0,0
20.06.2018 07:00:00 19,0 16,6 19,3 21,2 22,0 18,2 5 3 8 5 NE 1022,8 7 58 0,0
20.06.2018 06:00:00 17,0 16,3 15,9 21,5 22,1 18,2 6 3 9 5 E 1023,2 7 0 0,0
20.06.2018 05:00:00 17,7 16,9 17,5 21,7 22,2 18,2 3 2 4 2 NE 1022,9 13 0 0,0
20.06.2018 04:00:00 17,8 16,8 17,7 22,0 22,4 18,2 2 1 6 3 ENE 1022,9 14 0 0,0
20.06.2018 03:00:00 18,1 17,2 18,0 22,3 22,5 18,2 3 2 4 2 E 1023,0 16 0 0,0
20.06.2018 02:00:00 18,2 17,0 18,1 22,6 22,6 18,2 0 0 5 3 N 1023,3 19 0 0,0
20.06.2018 01:00:00 18,5 17,2 18,6 23,0 22,6 18,2 4 2 5 3 SSE 1023,4 23 0 0,0
20.06.2018 00:00:00 18,9 17,3 18,8 23,4 22,7 18,2 0 0 4 2 N 1023,4 20 0 0,0
19.06.2018 23:00:00 18,9 17,5 18,9 23,9 22,7 18,2 3 1 4 2 E 1023,3 25 0 0,0
19.06.2018 22:00:00 19,9 17,4 19,1 24,7 22,7 18,2 3 1 5 3 SSE 1023,1 39 0 0,0
19.06.2018 21:00:00 21,7 16,6 21,7 25,5 22,6 18,2 3 2 5 3 ENE 1022,4 36 5 0,0
19.06.2018 20:00:00 23,2 13,7 23,3 26,2 22,5 18,2 4 2 13 7 NNW 1022,3 50 16 0,0
19.06.2018 19:00:00 23,5 14,2 24,2 26,5 22,3 18,2 8 4 12 7 NNW 1022,3 51 1 0,0
19.06.2018 18:00:00 23,9 13,8 26,4 26,6 22,2 18,2 8 5 16 9 NW 1022,3 34 22 0,0
19.06.2018 17:00:00 23,6 14,0 26,8 26,2 22,0 18,2 7 4 14 8 SW 1022,6 40 2 0,0
19.06.2018 16:00:00 23,1 13,2 25,5 25,9 21,9 18,2 9 5 18 10 WSW 1022,9 35 11 0,0
19.06.2018 15:00:00 22,6 13,2 25,7 25,0 21,7 18,2 10 5 20 11 W 1023,5 22 0 0,0
19.06.2018 14:00:00 22,0 12,9 24,0 24,8 21,6 18,2 12 6 21 11 W 1023,7 35 2 0,0
19.06.2018 13:00:00 21,2 12,9 22,2 24,5 21,4 18,2 11 6 22 12 WNW 1023,9 39 3 0,0
19.06.2018 12:00:00 21,5 13,3 24,4 24,1 21,3 18,2 11 6 16 9 W 1023,9 36 3 0,0
19.06.2018 11:00:00 21,4 13,3 24,8 23,2 21,3 18,2 9 5 21 11 WSW 1024,0 32 38 0,0
19.06.2018 10:00:00 20,0 13,1 22,1 22,0 21,3 18,1 8 5 15 8 WSW 1024,3 30 19 0,0
19.06.2018 09:00:00 19,3 13,1 21,5 20,8 21,4 18,1 8 4 18 10 WSW 1024,2 18 41 0,0
19.06.2018 08:00:00 17,1 13,5 19,1 19,9 21,6 18,1 10 5 13 7 W 1024,3 14 18 0,0
19.06.2018 07:00:00 15,2 13,2 16,6 19,5 21,8 18,1 9 5 14 7 W 1024,3 11 4 0,0
19.06.2018 06:00:00 14,1 12,9 14,0 19,4 22,0 18,1 8 5 12 7 WSW 1024,2 9 0 0,0
19.06.2018 05:00:00 12,7 12,0 12,7 19,5 22,3 18,1 8 5 11 6 W 1024,0 8 0 0,0
19.06.2018 04:00:00 11,3 10,4 10,1 20,1 22,5 18,1 8 4 10 6 WSW 1023,9 10 0 0,0
19.06.2018 03:00:00 11,5 10,6 10,3 20,7 22,8 18,1 5 3 13 7 WSW 1023,9 11 0 0,0
19.06.2018 02:00:00 12,9 11,4 11,1 21,3 23,0 18,1 9 5 10 6 WSW 1023,5 17 0 0,0
19.06.2018 01:00:00 12,8 11,2 11,0 22,1 23,2 18,1 4 2 7 4 SSW 1023,5 15 0 0,0
19.06.2018 00:00:00 13,9 11,5 11,8 23,0 23,3 18,1 6 3 10 5 W 1023,2 19 0 0,0
18.06.2018 23:00:00 14,8 11,9 12,8 24,0 23,4 18,1 8 4 10 6 WSW 1023,0 21 0 0,0
18.06.2018 22:00:00 17,4 11,9 14,2 25,3 23,4 18,1 10 5 11 6 W 1022,0 25 6 0,0
18.06.2018 21:00:00 19,0 12,4 17,0 26,8 23,3 18,1 9 5 14 8 W 1021,1 26 60 0,0
18.06.2018 20:00:00 21,7 11,7 21,7 27,9 23,1 18,1 10 5 20 11 W 1020,4 40 60 0,0
18.06.2018 19:00:00 22,7 10,3 24,2 28,7 22,9 18,1 13 7 26 14 WNW 1020,3 30 53 0,0
18.06.2018 18:00:00 23,1 11,4 26,0 29,0 22,6 18,1 16 9 26 14 W 1020,3 25 51 0,0
18.06.2018 17:00:00 23,8 12,1 28,5 29,1 22,3 18,1 13 7 26 14 W 1020,2 24 53 0,0
18.06.2018 16:00:00 22,2 12,0 24,5 28,5 22,0 18,1 15 8 25 14 W 1020,8 23 30 0,0
18.06.2018 15:00:00 22,6 11,2 28,7 28,2 21,7 18,1 14 8 27 15 W 1020,8 19 50 0,0
18.06.2018 14:00:00 22,6 12,5 28,8 26,9 21,5 18,1 13 7 23 12 W 1021,2 15 44 0,0
18.06.2018 13:00:00 21,0 12,4 25,2 25,8 21,3 18,1 12 6 26 14 W 1021,9 19 15 0,0
18.06.2018 12:00:00 20,6 11,5 24,8 24,7 21,2 18,1 16 9 24 13 W 1021,7 20 41 0,0
18.06.2018 11:00:00 20,4 11,4 24,5 23,3 21,1 18,1 15 8 28 15 WNW 1021,8 27 39 0,0
18.06.2018 10:00:00 19,5 12,2 22,6 22,1 21,2 18,1 14 7 23 12 W 1021,6 15 38 0,0
18.06.2018 09:00:00 19,6 12,7 23,0 20,8 21,3 18,0 12 7 20 11 WNW 1021,1 10 49 0,0
18.06.2018 08:00:00 17,2 13,5 18,0 19,9 21,4 18,0 11 6 18 10 W 1021,5 19 37 0,0
18.06.2018 07:00:00 15,6 14,9 15,2 19,7 21,6 18,0 12 7 15 8 W 1021,5 7 0 0,0
18.06.2018 06:00:00 15,6 14,9 14,9 19,9 21,7 18,0 9 5 12 7 WSW 1021,1 6 0 0,0
18.06.2018 05:00:00 15,8 15,3 15,2 20,1 21,9 18,0 11 6 16 9 W 1020,6 4,8 0 0,0
18.06.2018 04:00:00 15,0 14,4 13,8 20,6 22,1 18,0 8 4 11 6 W 1020,5 4,9 0 0,0
18.06.2018 03:00:00 15,7 14,6 15,1 21,0 22,3 18,0 8 5 10 6 W 1020,3 12 0 0,0
18.06.2018 02:00:00 16,0 14,6 15,3 21,4 22,4 18,0 7 4 13 7 WSW 1020,0 18 0 0,0
18.06.2018 01:00:00 16,9 14,5 15,6 21,9 22,6 18,0 8 5 13 7 SW 1019,8 20 0 0,2
18.06.2018 00:00:00 16,9 13,8 15,7 22,3 22,7 18,0 8 5 12 6 W 1019,5 21 0 0,0
17.06.2018 23:00:00 16,4 14,0 15,2 22,9 22,8 18,0 5 3 10 5 SW 1019,0 22 0 0,0
17.06.2018 22:00:00 16,6 13,8 14,3 23,8 22,9 18,0 0 0 9 5 N 1018,2 39 0 0,0
17.06.2018 21:00:00 19,8 13,2 17,6 24,9 22,9 18,0 6 3 14 7 NNW 1017,1 31 11 0,0
17.06.2018 20:00:00 22,2 12,7 21,9 25,8 22,8 18,0 9 5 29 15 NNW 1016,4 55 53 0,0
17.06.2018 19:00:00 23,1 14,0 24,9 26,1 22,8 18,0 15 8 30 16 NNW 1015,6 28 24 0,0
17.06.2018 18:00:00 22,5 15,6 24,1 26,2 22,6 18,0 13 7 25 14 NW 1015,4 30 0 0,0
17.06.2018 17:00:00 22,4 14,9 23,8 26,6 22,5 18,0 19 10 32 17 WNW 1015,5 26 4 0,0
17.06.2018 16:00:00 21,7 13,7 22,5 27,3 22,2 18,0 16 9 33 18 WNW 1015,8 27 6 0,0
17.06.2018 15:00:00 22,7 14,2 25,0 28,4 21,9 18,0 27 14 39 21 NW 1015,7 29 22 0,0
17.06.2018 14:00:00 25,4 13,7 30,7 27,7 21,6 18,0 9 5 14 8 W 1015,0 33 23 0,0
17.06.2018 13:00:00 24,0 12,5 26,8 27,3 21,4 18,0 7 4 16 9 W 1015,6 25 26 0,0
17.06.2018 12:00:00 24,6 12,2 29,9 26,0 21,2 18,0 5 3 13 7 NW 1015,6 18 59 0,0
17.06.2018 11:00:00 23,1 13,0 27,8 24,1 21,1 18,0 4 2 10 5 W 1016,1 12 59 0,0
17.06.2018 10:00:00 21,1 11,8 24,4 22,4 21,1 18,0 6 3 11 6 WSW 1016,4 12 40 0,0
17.06.2018 09:00:00 19,2 13,0 21,4 20,9 21,2 18,0 4 2 10 6 WSW 1016,3 8 56 0,0
17.06.2018 08:00:00 16,6 12,8 18,2 19,3 21,5 18,0 3 2 11 6 WSW 1016,7 7 60 0,0
17.06.2018 07:00:00 13,8 12,3 14,7 18,6 21,7 18,0 4 2 6 3 WSW 1016,8 4,2 50 0,0
17.06.2018 06:00:00 11,3 11,0 10,4 18,7 22,0 18,0 5 3 9 5 SW 1016,8 4,3 0 0,0
17.06.2018 05:00:00 10,5 9,5 9,2 19,3 22,3 18,0 1 0 4 2 ENE 1016,7 4,0 0 0,0
17.06.2018 04:00:00 11,5 10,9 9,9 20,0 22,5 18,0 4 2 6 3 SSW 1016,6 4,4 0 0,0
17.06.2018 03:00:00 11,6 10,9 10,2 20,7 22,8 18,0 1 1 4 2 WNW 1016,6 5 0 0,0
17.06.2018 02:00:00 13,1 12,4 11,6 21,5 23,1 18,0 2 1 4 2 E 1016,4 5 0 0,0
17.06.2018 01:00:00 13,6 12,6 12,2 22,4 23,3 18,0 2 1 6 3 SSW 1016,3 6 0 0,0
17.06.2018 00:00:00 13,4 11,8 12,7 23,5 23,5 18,0 5 3 7 4 NW 1016,0 8 0 0,0
16.06.2018 23:00:00 15,2 13,2 13,9 24,8 23,6 18,0 4 2 6 3 W 1015,6 7 0 0,0
16.06.2018 22:00:00 17,0 13,6 14,9 26,4 23,6 18,0 0 0 4 2 N 1015,0 9 0 0,0
16.06.2018 21:00:00 20,4 14,1 19,0 28,2 23,4 18,0 4 2 7 4 NE 1014,0 10 33 0,0
16.06.2018 20:00:00 23,6 12,1 23,7 30,0 23,2 18,0 5 3 10 5 NE 1013,3 11 60 0,0
16.06.2018 19:00:00 25,0 9,5 27,3 31,3 22,8 18,0 4 2 13 7 N 1012,9 15 60 0,0
16.06.2018 18:00:00 24,9 8,7 29,1 32,0 22,3 18,0 5 3 15 8 NE 1013,2 14 60 0,0
16.06.2018 17:00:00 24,9 8,5 30,9 32,3 21,8 18,0 8 4 24 13 E 1013,4 7 60 0,0
16.06.2018 16:00:00 25,1 10,4 32,3 32,0 21,3 18,0 6 3 21 11 ESE 1013,6 14 60 0,0
16.06.2018 15:00:00 24,3 9,5 30,4 31,1 20,7 18,0 7 4 19 10 NE 1014,2 12 57 0,0
16.06.2018 14:00:00 24,4 11,2 32,0 29,7 20,3 18,0 10 5 19 10 E 1014,6 6 60 0,0
16.06.2018 13:00:00 22,9 8,8 28,6 27,7 19,9 18,1 10 5 16 9 NE 1015,3 9 60 0,0
16.06.2018 12:00:00 22,7 10,5 26,9 25,3 19,6 18,1 8 4 23 13 NE 1015,6 13 57 0,0
16.06.2018 11:00:00 22,0 11,0 26,8 23,1 19,5 18,1 10 5 17 9 E 1015,8 9 60 0,0
16.06.2018 10:00:00 20,3 12,4 22,7 20,7 19,5 18,1 8 4 14 8 ENE 1016,0 10 60 0,0
16.06.2018 09:00:00 17,8 12,6 20,1 18,8 19,6 18,1 5 3 8 4 NNE 1016,5 10 60 0,0
16.06.2018 08:00:00 15,9 11,6 15,8 17,2 19,8 18,1 0 0 4 2 N 1016,8 9 59 0,0
16.06.2018 07:00:00 12,3 10,3 12,2 16,4 20,0 18,1 0 0 3 1 N 1017,3 7 60 0,0
16.06.2018 06:00:00 9,3 8,4 8,9 16,4 20,3 18,1 2 1 2 1 NNW 1017,5 3,7 17 0,0
16.06.2018 05:00:00 9,4 9,3 8,1 16,9 20,5 18,1 2 1 3 2 WSW 1017,5 2,1 0 0,0
16.06.2018 04:00:00 9,7 9,3 8,1 17,6 20,8 18,1 0 0 4 2 N 1017,5 0,3 0 0,0
16.06.2018 03:00:00 10,4 9,9 9,2 18,2 21,1 18,1 0 0 3 2 N 1017,7 6 0 0,0
16.06.2018 02:00:00 11,4 10,8 9,6 19,0 21,3 18,1 0 0 5 3 N 1017,6 6 0 0,0
16.06.2018 01:00:00 11,6 10,8 10,5 19,9 21,5 18,2 3 1 8 4 SW 1017,4 9 0 0,0
16.06.2018 00:00:00 13,0 10,9 11,1 20,9 21,7 18,2 5 3 9 5 WSW 1017,2 12 0 0,0
15.06.2018 23:00:00 13,3 11,5 12,0 22,0 21,7 18,2 5 3 6 4 WSW 1017,1 14 0 0,0

tt = temperature
td = dewpoint
tt 5cm = temperature 5cm
tt -5cm = temperature -5cm
tt -20cm = temperature -20cm
tt -100cm = temperature -100cm
ff = wind speed
fx = gusts
dd = wind direction
ppp = reduced air pressure
vv = visibility
sd = sunshine duration
rr = precipitation

Next stations